[[{"header":{"parameterUnit":"m.s-1","parameterCategory":1,"la1":30.2991,"la2":30.254,"lo1":-89.0895,"lo2":-89.0444,"dy":0.0017,"dx":0.0017,"nx":28,"ny":28,"refTime":"2024-03-24T09:00:00:Z","depth":0,"parameterNumber":2,"parameterNumberName":"U-component_of_WINDS"},"data":[0,0,0,0,0,0,0,0,0,0,0,0,0,0,0,0,0,0,0,0,0,0,0,0,0,0,0,0,0,0,0,0,0,0,0,0,0,0,0,0,0,0,0,0,0,0,0,0,0,0,0,0,0,0,0,0,0,0,-6.4405,-6.4407,0,-6.4625,-6.4628,-6.463,-6.4677,-6.4675,-6.4674,-6.4672,-6.4901,-6.4908,-6.4916,0,0,0,0,0,0,0,0,0,0,0,0,0,-6.4027,-6.4034,-6.4405,-6.4408,-6.441,-6.4625,-6.4628,-6.4631,-6.4677,-6.4675,-6.4673,-6.4671,-6.4898,-6.4907,-6.4916,0,0,0,0,0,0,0,0,0,0,0,0,0,-6.4214,-6.4036,-6.4404,-6.4459,-6.4466,-6.4624,-6.4628,-6.4632,-6.4678,-6.4675,-6.4673,-6.467,-6.4895,-6.4906,-6.4918,-6.5037,0,0,-6.4952,-6.4957,0,0,0,0,0,0,0,0,-6.4203,-6.4228,-6.4448,-6.4456,-6.4464,-6.4621,-6.4579,-6.4768,-6.4678,-6.4598,-6.4672,-6.4669,-6.481,-6.4828,-6.4875,-6.5048,-6.5058,-6.4953,-6.496,-6.4965,-6.4968,0,0,0,0,0,0,0,-6.419,-6.4218,-6.4492,-6.4452,-6.4461,-6.4474,-6.4498,-6.4615,-6.4715,-6.4604,-6.4608,-6.4634,-6.4814,-6.4864,-6.4881,-6.5061,-6.4953,-6.4963,-6.497,-6.4975,-6.5344,-6.5347,0,0,0,0,0,0,-6.4167,-6.4207,-6.4485,-6.4499,-6.4325,-6.4483,-6.4509,-6.4573,-6.4714,-6.4733,-6.4635,-6.4635,-6.4845,-6.4867,-6.4889,-6.5038,-6.4965,-6.4976,-6.4982,-6.5341,-6.5345,-6.5348,0,0,0,0,0,0,-6.4159,-6.4191,-6.4476,-6.4354,-6.4391,-6.4492,-6.4563,-6.4579,-6.4629,-6.4737,-6.4756,-6.4668,-6.4844,-6.4873,-6.5,-6.5046,-6.4981,-6.4991,-6.5338,-6.5342,-6.5346,-6.5336,0,0,0,0,0,0,-6.4148,-6.4188,-6.4234,-6.4355,-6.4398,-6.4582,-6.4566,-6.4585,-6.4648,-6.465,-6.4773,-6.4791,-6.4845,-6.4983,-6.5011,-6.5061,-6.5,-6.5334,-6.534,-6.5345,-6.5333,-6.534,-6.5346,0,0,0,0,0,-6.4134,-6.4223,-6.4236,-6.4269,-6.4457,-6.4585,-6.4609,-6.4669,-6.4652,-6.4699,-6.4769,-6.4787,-6.5037,-6.4995,-6.5028,-6.5081,-6.5331,-6.5338,-6.5344,-6.533,-6.5338,-6.5345,0,0,0,0,0,0,-6.4105,-6.424,-6.4255,-6.4386,-6.4473,-6.4592,-6.4653,-6.4676,-6.4771,-6.4769,-6.484,-6.4867,-6.499,-6.5049,-6.5,-6.5205,-6.5183,-6.5197,-6.5161,-6.517,-6.5176,-6.5159,-6.501,0,0,0,0,0,-6.4114,-6.4206,-6.4319,-6.4423,-6.4466,-6.4552,-6.461,-6.4649,-6.4743,-6.478,-6.4859,-6.4951,-6.505,-6.5114,-6.5211,-6.5343,-6.537,-6.5396,-6.5402,-6.5407,-6.5417,-6.5491,-6.5503,-6.537,-6.537,-6.537,0,0,-6.4133,-6.4218,-6.4272,-6.4419,-6.4492,-6.4586,-6.4583,-6.4683,-6.4754,-6.4796,-6.492,-6.4981,-6.5088,-6.5218,-6.5279,-6.5271,-6.5461,-6.5415,-6.5418,-6.5426,-6.5499,-6.5511,-6.5522,-6.5374,-6.5373,-6.5373,0,0,-6.4215,-6.4289,-6.4383,-6.4456,-6.4565,-6.4622,-6.4645,-6.4761,-6.4803,-6.4929,-6.4962,-6.5049,-6.5218,-6.5293,-6.5353,-6.5465,-6.5485,-6.5495,-6.5528,-6.5599,-6.5609,-6.5619,-6.5658,-6.5671,-6.5505,-6.5505,-6.5505,0,-6.4225,-6.4367,-6.4429,-6.4527,-6.4591,-6.4634,-6.473,-6.4798,-6.4934,-6.4978,-6.4967,-6.5181,-6.5256,-6.5403,-6.543,-6.5479,-6.5507,-6.548,-6.5602,-6.5613,-6.5623,-6.566,-6.5675,-6.5506,-6.5506,-6.5506,-6.5506,0,-6.4373,-6.4471,-6.4535,-6.4664,-6.4736,-6.4832,-6.491,-6.4976,-6.5008,-6.5067,-6.5195,-6.5287,-6.5403,-6.5442,-6.5475,-6.5594,-6.5585,-6.5588,-6.5567,-6.5635,-6.5671,-6.5686,-6.5506,-6.5506,-6.5506,-6.5506,0,0,-6.4441,-6.4604,-6.4626,-6.4684,-6.4809,-6.4887,-6.4987,-6.51,-6.5154,-6.5248,-6.5333,-6.5476,-6.5479,-6.5547,-6.559,-6.5653,-6.5734,-6.5648,-6.5651,-6.5659,-6.587,-6.5866,-6.5881,-6.5749,-6.5752,-6.5755,-6.5861,0,-6.4537,-6.4714,-6.4773,-6.492,-6.5012,-6.5054,-6.5141,-6.5228,-6.5285,-6.5373,-6.5438,-6.5537,-6.5534,-6.5576,-6.564,-6.571,-6.5777,-6.5704,-6.5829,-6.5833,-6.5798,-6.5901,-6.5897,-6.5992,-6.5875,-6.5878,-6.588,0,-6.4672,-6.4765,-6.4921,-6.5034,-6.5075,-6.5152,-6.526,-6.5343,-6.5443,-6.548,-6.5557,-6.5595,-6.5702,-6.5677,-6.5825,-6.5774,-6.5829,-6.5872,-6.5877,-6.5889,-6.5858,-6.5914,-6.6024,-6.6037,-6.5903,-6.5901,-6.59,0,-6.4703,-6.4869,-6.4984,-6.5033,-6.5168,-6.5221,-6.528,-6.5377,-6.5442,-6.5538,-6.558,-6.5688,-6.5746,-6.5829,-6.5896,-6.5871,-6.6038,-6.6018,-6.6072,-6.607,-6.6103,-6.61,-6.6221,-6.6142,-6.6142,-6.6142,-6.6141,0,-6.4803,-6.4896,-6.4999,-6.5069,-6.5176,-6.5244,-6.5348,-6.541,-6.5496,-6.558,-6.5625,-6.5703,-6.5787,-6.5876,-6.593,-6.6044,-6.6071,-6.6105,-6.6117,-6.6099,-6.6095,-6.6135,-6.6129,-6.6146,-6.6145,-6.6144,-6.6143,0,-6.4855,-6.4928,-6.5055,-6.5173,-6.5205,-6.5278,-6.5379,-6.545,-6.551,-6.5615,-6.5644,-6.5739,-6.5847,-6.5922,-6.6061,-6.6097,-6.622,-6.6233,-6.6185,-6.6191,-6.624,-6.6233,-6.6389,-6.6413,-6.632,-6.6321,-6.6321,0,-6.4912,-6.4985,-6.511,-6.5169,-6.5227,-6.5322,-6.5387,-6.5459,-6.5525,-6.5644,-6.5701,-6.5811,-6.5903,-6.6073,-6.6155,-6.6262,-6.6277,-6.6324,-6.6293,-6.6273,-6.6276,-6.627,-6.6277,-6.6328,-6.6329,-6.6329,-6.633,0,-6.5006,-6.5039,-6.513,-6.5236,-6.5312,-6.5399,-6.5486,-6.5532,-6.5619,-6.5692,-6.5802,-6.5873,-6.6015,-6.6124,-6.6239,-6.6301,-6.633,-6.6339,-6.6357,-6.6338,-6.6307,-6.6323,-6.6196,-6.6335,-6.6334,-6.6334,-6.6334,-6.6333,-6.5062,-6.5128,-6.5226,-6.5327,-6.54,-6.5481,-6.5552,-6.5621,-6.5714,-6.5833,-6.5871,-6.5985,-6.6084,-6.6241,-6.6305,-6.6396,-6.6393,-6.6419,-6.6425,-6.643,-6.6428,-6.6294,-6.6418,-6.6418,-6.6417,-6.6417,-6.6417,0,-6.5156,-6.5221,-6.5314,-6.5434,-6.5514,-6.5534,-6.5632,-6.5697,-6.5796,-6.5886,-6.5975,-6.6102,-6.6208,-6.6299,-6.641,-6.6465,-6.6481,-6.6492,-6.6487,-6.6501,-6.6426,-6.6398,-6.6477,-6.6477,-6.6477,-6.6477,-6.6477,-6.6477,-6.5214,-6.5327,-6.5371,-6.5521,-6.5587,-6.5697,-6.5751,-6.5826,-6.5898,-6.6036,-6.6125,-6.6183,-6.6274,-6.6391,-6.649,-6.6514,-6.6552,-6.6559,-6.6586,-6.6513,-6.6506,-6.65,-6.6474,-6.6567,-6.6567,-6.6654,-6.6654,-6.6655]},{"header":{"parameterUnit":"m.s-1","parameterCategory":1,"la1":30.2991,"la2":30.254,"lo1":-89.0895,"lo2":-89.0444,"dy":0.0017,"dx":0.0017,"nx":28,"ny":28,"refTime":"2024-03-24T09:00:00:Z","depth":0,"parameterNumber":3,"parameterNumberName":"V-component_of_WINDS"},"data":[0,0,0,0,0,0,0,0,0,0,0,0,0,0,0,0,0,0,0,0,0,0,0,0,0,0,0,0,0,0,0,0,0,0,0,0,0,0,0,0,0,0,0,0,0,0,0,0,0,0,0,0,0,0,0,0,0,0,5.3624,5.3625,0,5.3684,5.3685,5.3685,5.3666,5.3665,5.3663,5.3662,5.3724,5.3727,5.373,0,0,0,0,0,0,0,0,0,0,0,0,0,5.3497,5.35,5.3624,5.3625,5.3626,5.3684,5.3685,5.3685,5.3666,5.3665,5.3663,5.3662,5.3723,5.3727,5.373,0,0,0,0,0,0,0,0,0,0,0,0,0,5.3554,5.3501,5.3624,5.3623,5.3624,5.3684,5.3685,5.3686,5.3666,5.3665,5.3663,5.3661,5.3722,5.3726,5.373,5.3795,0,0,5.3743,5.3745,0,0,0,0,0,0,0,0,5.3551,5.3559,5.3623,5.3623,5.3624,5.3665,5.3663,5.3722,5.3667,5.365,5.3662,5.366,5.3706,5.3712,5.3727,5.3798,5.3801,5.3744,5.3746,5.3748,5.3749,0,0,0,0,0,0,0,5.3547,5.3556,5.3648,5.3624,5.3624,5.3621,5.3627,5.3674,5.3688,5.3652,5.365,5.3658,5.3706,5.3723,5.3728,5.3802,5.3744,5.3748,5.375,5.3752,5.3932,5.3934,0,0,0,0,0,0,5.3542,5.3553,5.3646,5.365,5.3582,5.3625,5.3631,5.3654,5.3688,5.3691,5.3659,5.3656,5.3717,5.3723,5.3731,5.3811,5.3748,5.3752,5.3755,5.393,5.3933,5.3935,0,0,0,0,0,0,5.354,5.3551,5.3644,5.3601,5.3613,5.3629,5.3655,5.3656,5.3673,5.3693,5.3696,5.3673,5.3715,5.3725,5.378,5.3813,5.3754,5.3758,5.3927,5.3931,5.3934,5.397,0,0,0,0,0,0,5.3536,5.355,5.3574,5.3602,5.3615,5.3691,5.3657,5.3659,5.368,5.3677,5.3708,5.3711,5.3715,5.3774,5.3784,5.3817,5.3761,5.3925,5.3929,5.3933,5.3966,5.3975,5.3982,0,0,0,0,0,5.3532,5.3582,5.3575,5.3587,5.3645,5.3693,5.3701,5.3704,5.3683,5.3708,5.3722,5.371,5.3807,5.378,5.3791,5.3826,5.3923,5.3928,5.3933,5.3963,5.3973,5.3981,0,0,0,0,0,0,5.3557,5.3585,5.3578,5.3638,5.3664,5.369,5.3721,5.3714,5.3746,5.3742,5.3745,5.3752,5.3809,5.3823,5.3792,5.3892,5.3862,5.3869,5.3881,5.3891,5.3898,5.3894,5.3765,0,0,0,0,0,5.357,5.3606,5.3628,5.3679,5.3692,5.3705,5.3726,5.3726,5.3752,5.3763,5.378,5.3807,5.3844,5.3868,5.3903,5.3968,5.3976,5.3998,5.4006,5.4012,5.4019,5.4057,5.4068,5.3952,5.3952,5.3952,0,0,5.3596,5.3616,5.3638,5.3685,5.3704,5.3743,5.3714,5.3755,5.3784,5.3769,5.3823,5.3837,5.3867,5.3929,5.3957,5.3942,5.4053,5.4018,5.4023,5.4027,5.4063,5.4074,5.4084,5.3955,5.3954,5.3954,0,0,5.3664,5.3682,5.3727,5.3748,5.3778,5.3786,5.3797,5.3825,5.3834,5.3888,5.3879,5.3913,5.3976,5.3999,5.4018,5.4097,5.4089,5.4109,5.4149,5.4186,5.4195,5.4203,5.4234,5.4244,5.4115,5.4115,5.4115,0,5.3694,5.375,5.3752,5.3795,5.3816,5.3805,5.3852,5.3872,5.3912,5.3928,5.3911,5.3992,5.4011,5.4079,5.4098,5.4114,5.4128,5.4105,5.4194,5.4202,5.421,5.4239,5.425,5.4118,5.4117,5.4117,5.4117,0,5.3786,5.3825,5.3859,5.3898,5.3923,5.3968,5.3978,5.4004,5.4003,5.4013,5.407,5.4093,5.4133,5.4149,5.4148,5.4218,5.4208,5.4192,5.4162,5.4223,5.425,5.4261,5.4121,5.412,5.412,5.4119,0,0,5.3871,5.3912,5.3924,5.3943,5.3976,5.4007,5.4053,5.4092,5.4115,5.4144,5.4183,5.4237,5.4224,5.4246,5.4248,5.428,5.4344,5.4261,5.4262,5.4277,5.4425,5.4438,5.4451,5.4339,5.4341,5.4342,5.4424,0,5.3944,5.4022,5.4026,5.4098,5.4136,5.4127,5.4167,5.4192,5.4204,5.4239,5.4251,5.4291,5.4269,5.4283,5.4314,5.433,5.4374,5.4324,5.4377,5.4379,5.4371,5.4465,5.4478,5.4553,5.4434,5.4436,5.4437,0,5.4038,5.407,5.4146,5.4176,5.4192,5.4227,5.4265,5.4298,5.4328,5.4334,5.436,5.4357,5.4406,5.4373,5.4441,5.4406,5.4428,5.4439,5.4443,5.4449,5.4412,5.4475,5.4577,5.4589,5.4453,5.4452,5.4451,0,5.4096,5.4157,5.4211,5.4227,5.4263,5.4288,5.4305,5.4332,5.4356,5.439,5.4406,5.4444,5.4466,5.4496,5.4505,5.448,5.4573,5.4541,5.4581,5.4581,5.4602,5.4601,5.4711,5.4614,5.4614,5.4613,5.4613,0,5.4177,5.4224,5.4238,5.4271,5.4325,5.4329,5.4383,5.4397,5.4422,5.446,5.4454,5.4489,5.4498,5.4535,5.4542,5.4598,5.4608,5.4615,5.4617,5.4617,5.4616,5.4632,5.4628,5.4616,5.4616,5.4615,5.4615,0,5.425,5.4261,5.432,5.4349,5.4357,5.4396,5.4421,5.4454,5.4465,5.4513,5.4524,5.4542,5.4587,5.4598,5.465,5.4655,5.4722,5.4718,5.4712,5.4713,5.4753,5.475,5.4879,5.4897,5.4786,5.4787,5.4788,0,5.4302,5.4339,5.4372,5.4396,5.4413,5.4453,5.4478,5.4484,5.4511,5.4548,5.4577,5.4621,5.4656,5.4727,5.4745,5.4786,5.4784,5.4826,5.479,5.479,5.4787,5.4786,5.479,5.4834,5.4835,5.4836,5.4836,0,5.4394,5.4398,5.4434,5.4472,5.4502,5.4533,5.4562,5.4583,5.4594,5.4624,5.4669,5.4696,5.4751,5.4795,5.4836,5.4854,5.4848,5.4848,5.486,5.4861,5.4857,5.4862,5.4733,5.4845,5.4844,5.4843,5.4843,5.4843,5.446,5.4493,5.4522,5.4562,5.4585,5.4613,5.4646,5.4662,5.4699,5.4744,5.4745,5.4795,5.4826,5.4881,5.4901,5.4941,5.4929,5.4945,5.495,5.4954,5.4959,5.4849,5.4949,5.4948,5.4948,5.4948,5.4948,0,5.4554,5.4572,5.4609,5.465,5.4683,5.4674,5.4706,5.4735,5.4778,5.4807,5.4842,5.4895,5.4938,5.496,5.5003,5.5031,5.503,5.5043,5.5042,5.5046,5.4967,5.4953,5.5043,5.5043,5.5043,5.5043,5.5043,5.5043,5.4606,5.4662,5.4669,5.4737,5.4755,5.4803,5.4823,5.485,5.4873,5.4932,5.4968,5.4982,5.5009,5.5054,5.5094,5.51,5.5117,5.5131,5.5136,5.5061,5.5052,5.5042,5.503,5.5135,5.5135,5.5213,5.5213,5.5214]}]]